101P/Chernykh (2005)

Japanese version
Home page
Updated on February 18, 2007

---------------------------------------------------------------------

* Profile

* Pictures

* Orbital Elements

Epoch 2005 Dec. 16.0 TT = JDT 2453720.5
T 2005 Dec. 25.32380 TT                                 MPC
q   2.3505242            (2000.0)            P               Q
n   0.07078621     Peri.  263.16552     +0.83149908     -0.55140421
a   5.7876681      Node   130.27340     +0.53823003     +0.76952835
e   0.5938737      Incl.    5.07920     +0.13754169     +0.32214829
P  13.92
>From 34 observations 1992 Jan. 27-2005 July 11, mean residual 0".68.

 101P/Chernykh  (component B; cf. IAUC 8637)
T 2005 Dec. 24.5263 TT                                  MPC
q   2.351392             (2000.0)            P               Q
n   0.0700012      Peri.  263.2661      +0.8313277      -0.5516536
a   5.830858       Node   130.1903      +0.5384696      +0.7693169
e   0.596733       Incl.    5.0784      +0.1376397      +0.3222264
P  14.1
>From 68 observations 2005 Nov. 30-2006 Jan. 21.

* Finding Charts

* Magnitudes Graph

	Component A:
        m1 = 10.0 + 5 log d + 12.0 log r

	Component B:
        m1 = 12.5 + 5 log d + 12.0 log r

---------------------------------------------------------------------

The orbital elements are published on M.P.E.C. 2005-N59.
The orbital elements of the component B are published on M.P.E.C. 2006-B28.
The charts are made with StellaNavigator Ver.2.0 for Windows (AstroArts / ASCII).
The magnitudes graphs are made with Comet for Windows.

---------------------------------------------------------------------

Copyright(C) Seiichi Yoshida (comet@aerith.net). All rights reserved.